This demonstration page uses our WeatherBlox Daily Observations layout. Learn more.

41.55636, -103.73856

Hourly Observations for September 16, 2017

Temp ( °F °C ) Dew Point ( °F °C ) Humidity (%) Winds ( mph kmh ) Pressure ( in mb ) Visibility ( mi km ) Precip ( " mm )
12:18 am 00:18 Cloudy with Light Thunderstorms 52 11 46 8 82 82 NW 9 15 29.97 1015 10 16.0934 0 0
12:33 am 00:33 Cloudy with Nearby Thunderstorms 50 10 47 8.3 89 89 NNW 9 15 29.94 1014 7 11.26538 0.03 0.762
12:41 am 00:41 Cloudy with Light Rain 50 10 47 8.3 89 89 NW 6 9 29.97 1015 7 11.26538 0.04 1.016
12:53 am 00:53 Cloudy with Rain 50 10 47 8.3 89 89 NNE 10 17 29.91 1013 6 9.65604 0.07 1.778
1:53 am 01:53 Cloudy with Light Rain 50 10 45 7.2 83 83 Calm 29.94 1014 10 16.0934 0.04 1.016
2:53 am 02:53 Mostly Cloudy with Light Rain 47 8.3 45 7.2 93 93 N 7 11 29.91 1013 10 16.0934 0.11 2.794
3:53 am 03:53 Mostly Clear 46 7.8 43 6.1 89 89 WNW 7 11 29.92 1013 10 16.0934 0 0.0254
4:10 am 04:10 Mostly Cloudy 46 7.8 43 6.1 89 89 WNW 7 11 30.03 1017 10 16.0934 0 0
4:53 am 04:53 Cloudy 47 8.3 44 6.7 90 90 NW 8 13 29.94 1014 10 16.0934 0 0
5:53 am 05:53 Cloudy 47 8.3 43 6.1 86 86 NW 9 15 29.96 1015 10 16.0934 0 0
6:53 am 06:53 Cloudy 47 8.3 42 5.6 83 83 NNW 6 9 30.01 1016 10 16.0934 0 0
7:53 am 07:53 Cloudy 48 8.9 41 5 77 77 N 5 7 30.06 1018 10 16.0934 0 0
8:18 am 08:18 Cloudy 48 9 41 5 76 76 N 8 13 30.09 1019 10 16.0934 0 0
8:53 am 08:53 Cloudy 49 9.4 41 5 74 74 Calm 30.07 1018 10 16.0934 0 0
9:53 am 09:53 Cloudy 49 9.4 41 5 74 74 WNW 5 7 30.09 1019 10 16.0934 0 0
10:08 am 10:08 Mostly Cloudy 52 11 41 5 67 67 Calm 30.06 1018 10 16.0934 0 0
10:48 am 10:48 Mostly Cloudy 52 11 43 6 72 72 Calm 30.06 1018 10 16.0934 0 0
10:53 am 10:53 Mostly Cloudy 51 10.6 41 5 69 69 Calm 30.09 1019 10 16.0934 0 0
11:53 am 11:53 Partly Cloudy 54 12.2 43 6.1 67 67 S 5 7 30.07 1018 10 16.0934 0 0
12:02 pm 12:02 Mostly Cloudy 55 12.8 42 5.6 62 62 WSW 6 9 30.06 1018 10 16.0934 0 0
12:11 pm 12:11 Mostly Sunny 56 13.3 41 5 57 57 Calm 30.03 1017 10 16.0934 0 0
12:53 pm 12:53 Mostly Sunny 56 13.3 42 5.6 60 60 VRB 3 6 30.05 1018 10 16.0934 0 0
1:53 pm 13:53 Sunny 61 16.1 42 5.6 50 50 VRB 3 6 30.01 1016 10 16.0934 0 0
2:53 pm 14:53 Sunny 64 17.8 42 5.6 45 45 SW 5 7 29.99 1016 10 16.0934 0 0
3:53 pm 15:53 Mostly Sunny 64 17.8 43 6.1 46 46 SSE 7 11 30 1016 10 16.0934 0 0
4:53 pm 16:53 Partly Cloudy 65 18.3 42 5.6 43 43 SE 6 9 30 1016 10 16.0934 0 0
5:53 pm 17:53 Sunny 64 17.8 44 6.7 48 48 SE 9 15 30.01 1016 10 16.0934 0 0
6:53 pm 18:53 Sunny 60 15.6 46 7.8 60 60 Calm 30.04 1017 10 16.0934 0 0
7:53 pm 19:53 Clear 56 13.3 44 6.7 65 65 undefined N/A 30.1 1019 10 16.0934 0 0
8:53 pm 20:53 Clear 52 11.1 43 6.1 72 72 NNE 7 11 30.14 1021 10 16.0934 0 0
9:53 pm 21:53 Clear 51 10.6 42 5.6 71 71 NNE 8 13 30.15 1021 10 16.0934 0 0
10:53 pm 22:53 Clear 51 10.6 42 5.6 71 71 SSW 3 6 30.16 1021 10 16.0934 0 0
11:53 pm 23:53 Mostly Cloudy 50 10 44 6.7 80 80 Calm 30.16 1022 10 16.0934 0 0

Powered by AerisWeather